Regional Weather Roundup
Issued by NWS Sioux Falls, SD

Home | Current Version | Previous Version | Text Only | Print | Product List | Glossary On
Versions: 1 2 3 4 5 6 7 8 9 10 11 12 13 14 15 16 17 18 19 20 21 22 23 24 25 26 27 28 29 30 31 32 33 34 35 36 37 38 39 40 41 42 43 44 45 46 47 48 49 50
000
ASUS43 KFSD 251102
RWRFSD

WEATHER ROUNDUP FOR SE SOUTH DAKOTA/SW MINNESOTA/NW IOWA
NATIONAL WEATHER SERVICE SIOUX FALLS SD
500 AM CST SUN JAN 25 2015

NOTE: "FAIR" INDICATES FEW OR NO CLOUDS BELOW 12,000 FEET WITH NO
SIGNIFICANT WEATHER AND OR OBSTRUCTIONS TO VISIBILITY.


SDZ038>040-050-052>070-251200-
SOUTHEAST SOUTH DAKOTA

CITY           SKY/WX    TMP DP  RH WIND       PRES   REMARKS
CHAMBERLAIN    NOT AVBL
HURON          CLOUDY    31  29  92 NW12      29.90R WCI  22
MADISON        CLOUDY    32  32 100 N16       29.83R FOG     WCI  21
MITCHELL       CLOUDY    32  30  92 N15       29.90R WCI  22
SIOUX FALLS    FLURRIES  33  31  92 N16       29.82R WCI  23
WINNER         CLOUDY    39  31  72 NW22G29   29.93R
YANKTON        CLOUDY    34  28  80 NW22G29   29.86R WCI  22
$$

MNZ071-072-080-081-089-090-097-098-251200-
SOUTHWEST MINNESOTA

CITY           SKY/WX    TMP DP  RH WIND       PRES   REMARKS
FAIRMONT       CLOUDY    34  28  80 N15       29.74R WCI  24
JACKSON        MIX PCPN  32  32 100 N17       29.76R WCI  21
LUVERNE        LGT RAIN  34  32  93 N10G16    29.80R WCI  26
MARSHALL       CLOUDY    32  30  93 N12       29.85R WCI  23
MONTEVIDEO     CLOUDY    32  32 100 E7        29.86R WCI  26
PIPESTONE      CLOUDY    34  32  93 NE10      29.79R FOG     WCI  26
REDWOOD FALLS  CLOUDY    32  29  88 N9        29.83R WCI  24
TRACY          LGT SNOW  33  32  97 N14       29.82R WCI  23
WINDOM         LGT SNOW  34  32  93 N13       29.78R WCI  25
WORTHINGTON    CLOUDY    32  30  93 N16       29.78R WCI  21
$$

IAZ001>003-012>014-020>022-031-032-NEZ013-014-SDZ071-251200-
NORTHWEST IOWA

CITY           SKY/WX    TMP DP  RH WIND       PRES   REMARKS
ESTHERVILLE    LGT SNOW  32  31  96 N18       29.73R FOG     WCI  20
SIOUX CITY     LGT SNOW  34  32  92 N18       29.78R FOG     WCI  23
SPENCER        LGT SNOW  34  31  88 N16       29.74R FOG     WCI  24
$$

ABBREVIATIONS USED IN REMARKS
   TC - TEMPERATURE IN CELSIUS
  WCI - WIND CHILL INDEX
   HX - HEAT INDEX
  VSB - VISIBILITY



USA.gov is the U.S. government's official web portal to all federal, state and local government web resources and services.